Torna al catalogo

TITAN 3C TRANSTAGE DEB

AttivoGEO
NORAD 25001·DEBRIS·🇺🇸 United States

Lanciato Sep 26, 1968 da Cape Canaveral Space Force Station

Loading…

TLE

AggiornatoSource: Space-Track

Epoca: Sep 14, 2026, 12:44 UTC

1 25001U 68081H   26257.53110872 -.00000063  00000-0  00000-0 0  9990
2 25001   2.2251  54.6035 0061118 358.1037 270.4246  1.01691325119227

Traccia TITAN 3C TRANSTAGE DEB in tempo reale con AllMySat

Download on the App Store